DELTA 1 DEB (YO), 28144

Orbit data source: Space-Track

DELTA 1 DEB (YO), 28144 is space debris originally from a launch on Thu, 08 Jul 1976 UTC launched from the Air Force Eastern Test Range (AFETR). Debris objects in space refer to the collection of defunct objects orbiting the Earth. Examples of debris include non-operational satellites, rocket bodies, and fragments generated from explosions, collisions, or faulty payload assembly.

Loading next visibility...
Identifier
28144, 1976-066D
Orbit
Active
Country
Flag of USUS
Related business
Manufacturer
Thiokol/TE
Mission
Spacecraft
Bus & Motor
Unknown
Mass
Unknown
Launch date (UTC)
1976-07-08 (49 years ago)
Launch vehicle
Unknown
Launch site
Air Force Eastern Test Range (AFETR)
Object type
Payload
Rocket body
Debris
Shape & HBR
Unknown shape, 0.1 m
Radar Cross Section
Small (<0.1 m²)

Expand to show TLE details & history
Last TLE update: 1 week ago

TLE from 1 week ago
0 DELTA 1 DEB (YO)
1 28144U 76066D   25308.81242984  .00002308  00000-0  14599-2 0  9993
2 28144  24.5590  22.0704 4395629 203.0283 129.0422  6.47653750310284
Epoch: 2025-11-04T19:29Z
TLE epoch observation values (Epoch: 2025-11-04T19:29:53.938Z)
Latitude
-0°
Longitude
45.30157°
Altitude
10,093.582 km
Speed
3.952 km/s
True Right ascension
01h 28m 16s
True Declination
0° 00' 00"
Sunlit
Object was in daylight at epoch
Visualization orbit readout
Latitude
Unknown
Longitude
Unknown
Altitude
Unknown
Speed
Unknown
Apparent Right ascension
Unknown
Apparent Declination
Unknown
Sunlit
N/A
Visualization observer readout
Local Sidereal Time
11:04:10
Azimuth
Unknown
Elevation
Unknown
Doppler factor
Unknown
Orbital elements
Apogee altitude
11,128.517 km
Perigee altitude
437.389 km
Semi-major axis
12,161.09 km
Eccentricity
0.43956
Inclination
24.559°
RAAN
22.0704°
Arg. of periapsis
203.0283°
True anomaly
157.0037°
Mean anomaly
129.0422°
Eccentric anomaly
143.8861°
Mean motion
1.61839 °/min
Orbital period
222.44 mins
BSTAR
0.0014599
Loading maneuver chart data...
Computing Atmospheric mass density...
Loading historical data...
Loading historical data...
Loading historical data...
Loading historical data...
Loading historical data...
Loading historical data...
Loading historical data...
Other satellites on launch #66 in the year 1976 (1976-07-08 UTC)

Documentation

Showing up to 5 results
|